Weather History for K5R8 - January, 2014

Change the Weather History Date:

Saturday, January 18, 2014

  Actual Average (KLCH) Record (KLCH)
Temperature  
Mean Temperature 44 °F 52 °F  
Max Temperature 61 °F 61 °F 79 °F (1952)
Min Temperature 27 °F 42 °F 13 °F (1930)
Degree Days  
Heating Degree Days 21 14  
Month to date heating degree days 252  
Since 1 July heating degree days 826  
Cooling Degree Days 0 0  
Month to date cooling degree days 0  
Year to date cooling degree days 0  
Moisture  
Dew Point 34 °F    
Average Humidity 71    
Maximum Humidity 96    
Minimum Humidity 33    
Precipitation  
Precipitation 0.00 in 0.18 in 2.56 in (1992)
Month to date precipitation 3.16  
Year to date precipitation 3.16  
Snow  
Snow 0.00 in 0.00 in 0.30 in (1940)
Month to date snowfall 0.0  
Since 1 July snowfall T  
Snow Depth -    
Sea Level Pressure  
Sea Level Pressure 30.21 in    
Wind  
Wind Speed 3 mph (South)    
Max Wind Speed 14 mph    
Max Gust Speed 22 mph    
Visibility 10 miles    
Events      
T = Trace of Precipitation, MM = Missing Value Source: NWS Daily Summary

Daily Weather History Graph

Daily Weather History Graph

Search for Another Location

Airport or City:

Trip Planner

Search our weather history database for the weather conditions in past years. The results will help you decide how hot, cold, wet, or windy it might be!

Date:

Astronomy

Jan. 18, 2014 Rise Set
Actual Time 7:10 AM CST 5:38 PM CST
Civil Twilight 6:45 AM CST 6:04 PM CST
Nautical Twilight 6:15 AM CST 6:33 PM CST
Astronomical Twilight 5:46 AM CST 7:02 PM CST
Moon 8:06 PM CST (1/18) 8:23 AM CST (1/18)
Length of Visible Light 11h 19m
Length of Day
10h 27m
Waning Gibbous, 94% of the Moon is Illuminated
Jan 18
Waning Gibbous
Jan 23
Last Quarter
Jan 30
New
Feb 6
First Quarter
Feb 14
Full

Hourly Weather History & Observations

Time (CST) Temp. Windchill Dew Point Humidity Pressure Visibility Wind Dir Wind Speed Gust Speed Precip Events Conditions
12:15 AM 29.7 °F - 26.6 °F 88% 30.27 in 10.0 mi Calm Calm - N/A   Clear
12:35 AM 29.7 °F - 26.2 °F 87% 30.27 in 10.0 mi Calm Calm - N/A   Clear
12:55 AM 28.8 °F - 26.6 °F 92% 30.27 in 10.0 mi Calm Calm - N/A   Clear
1:15 AM 28.9 °F - 26.4 °F 90% 30.28 in 10.0 mi Calm Calm - N/A   Clear
1:35 AM 28.9 °F - 26.6 °F 91% 30.29 in 10.0 mi Calm Calm - N/A   Clear
1:55 AM 28.8 °F - 26.1 °F 90% 30.29 in 10.0 mi Calm Calm - N/A   Clear
2:15 AM 28.2 °F - 26.1 °F 92% 30.29 in 10.0 mi Calm Calm - N/A   Clear
2:35 AM 28.2 °F - 24.8 °F 87% 30.28 in 10.0 mi Calm Calm - N/A   Clear
2:55 AM 27.9 °F - 24.4 °F 87% 30.29 in 10.0 mi Calm Calm - N/A   Clear
3:15 AM 27.5 °F - 25.2 °F 91% 30.29 in 10.0 mi Calm Calm - N/A   Clear
3:35 AM 27.5 °F - 24.8 °F 90% 30.28 in 10.0 mi Calm Calm - N/A   Clear
3:55 AM 27.9 °F - 25.7 °F 92% 30.28 in 10.0 mi Calm Calm - N/A   Clear
4:15 AM 27.5 °F - 25.3 °F 92% 30.28 in 10.0 mi Calm Calm - N/A   Clear
4:35 AM 27.3 °F - 25.5 °F 93% 30.28 in 10.0 mi Calm Calm - N/A   Clear
4:55 AM 27.5 °F - 25.7 °F 93% 30.28 in 10.0 mi Calm Calm - N/A   Clear
5:15 AM 27.3 °F - 25.5 °F 93% 30.28 in 10.0 mi Calm Calm - N/A   Clear
5:35 AM 27.5 °F - 25.7 °F 93% 30.28 in 10.0 mi Calm Calm - N/A   Clear
5:55 AM 27.7 °F - 25.7 °F 92% 30.27 in 10.0 mi Calm Calm - N/A   Clear
6:15 AM 28.2 °F - 26.2 °F 92% 30.27 in 10.0 mi Calm Calm - N/A   Clear
6:35 AM 28.4 °F - 25.9 °F 90% 30.27 in 10.0 mi Calm Calm - N/A   Clear
6:55 AM 27.1 °F - 25.0 °F 92% 30.27 in 10.0 mi Calm Calm - N/A   Clear
7:15 AM 28.2 °F - 25.7 °F 90% 30.27 in 10.0 mi Calm Calm - N/A   Clear
7:35 AM 28.6 °F - 25.3 °F 88% 30.27 in 10.0 mi Calm Calm - N/A   Clear
7:55 AM 30.0 °F - 27.3 °F 90% 30.27 in 10.0 mi Calm Calm - N/A   Clear
8:15 AM 33.1 °F 30.0 °F 26.6 °F 77% 30.27 in 10.0 mi SSE 3.5 mph - N/A   Clear
8:35 AM 37.6 °F 33.1 °F 27.0 °F 66% 30.27 in 10.0 mi SSE 5.8 mph - N/A   Clear
8:55 AM 41.2 °F 37.3 °F 25.9 °F 55% 30.28 in 10.0 mi SSE 5.8 mph - N/A   Clear
9:15 AM 43.5 °F 38.9 °F 27.3 °F 53% 30.29 in 10.0 mi SSE 8.1 mph - N/A   Clear
9:35 AM 45.9 °F 41.7 °F 26.2 °F 46% 30.29 in 10.0 mi SSE 8.1 mph - N/A   Clear
9:55 AM 48.4 °F - 26.6 °F 43% 30.29 in 10.0 mi SSE 9.2 mph - N/A   Clear
10:15 AM 50.9 °F - 25.5 °F 37% 30.29 in 10.0 mi South 13.8 mph - N/A   Clear
10:35 AM 52.7 °F - 24.8 °F 34% 30.28 in 10.0 mi SSE 10.4 mph - N/A   Clear
10:55 AM 54.1 °F - 25.7 °F 33% 30.27 in 10.0 mi South 9.2 mph - N/A   Clear
11:15 AM 56.1 °F - 28.4 °F 35% 30.26 in 10.0 mi South 11.5 mph - N/A   Clear
11:35 AM 56.8 °F - 27.5 °F 33% 30.25 in 10.0 mi South 9.2 mph 16.1 mph N/A   Clear
11:55 AM 57.7 °F - 31.1 °F 36% 30.23 in 10.0 mi South 9.2 mph - N/A   Clear
12:15 PM 58.3 °F - 32.0 °F 37% 30.22 in 10.0 mi SSW 4.6 mph 18.4 mph N/A   Clear
12:35 PM 59.5 °F - 32.0 °F 35% 30.20 in 10.0 mi South 12.7 mph - N/A   Clear
12:55 PM 59.7 °F - 32.2 °F 35% 30.19 in 10.0 mi SSW 13.8 mph - N/A   Clear
1:15 PM 60.4 °F - 33.4 °F 36% 30.18 in 10.0 mi SW 9.2 mph - N/A   Clear
1:35 PM 61.2 °F - 34.5 °F 37% 30.17 in 10.0 mi SSE 10.4 mph 20.7 mph N/A   Clear
1:55 PM 61.7 °F - 34.3 °F 36% 30.16 in 10.0 mi SSW 13.8 mph 21.9 mph N/A   Clear
2:15 PM 61.5 °F - 35.6 °F 38% 30.16 in 10.0 mi SSW 11.5 mph 17.3 mph N/A   Clear
2:35 PM 61.0 °F - 37.0 °F 41% 30.15 in 10.0 mi South 12.7 mph 21.9 mph N/A   Clear
2:55 PM 60.6 °F - 37.8 °F 43% 30.15 in 10.0 mi South 12.7 mph 20.7 mph N/A   Clear
3:15 PM 61.0 °F - 37.8 °F 42% 30.15 in 10.0 mi South 10.4 mph - N/A   Clear
3:35 PM 61.7 °F - 38.7 °F 43% 30.15 in 10.0 mi South 9.2 mph - N/A   Clear
3:55 PM 61.3 °F - 39.4 °F 44% 30.15 in 10.0 mi South 12.7 mph - N/A   Clear
4:15 PM 59.7 °F - 40.3 °F 49% 30.15 in 10.0 mi SSW 10.4 mph - N/A   Clear
4:35 PM 59.4 °F - 41.2 °F 51% 30.14 in 10.0 mi South 8.1 mph - N/A   Clear
4:55 PM 58.5 °F - 42.1 °F 55% 30.14 in 10.0 mi South 11.5 mph 17.3 mph N/A   Clear
5:15 PM 57.4 °F - 43.2 °F 59% 30.14 in 10.0 mi South 9.2 mph - N/A   Clear
5:35 PM 55.8 °F - 43.9 °F 64% 30.14 in 10.0 mi South 5.8 mph - N/A   Clear
5:55 PM 54.7 °F - 44.1 °F 67% 30.15 in 10.0 mi South 5.8 mph - N/A   Clear
6:15 PM 52.7 °F - 44.1 °F 72% 30.14 in 10.0 mi SSE 4.6 mph - N/A   Clear
6:35 PM 52.0 °F - 44.6 °F 76% 30.14 in 10.0 mi SSE 3.5 mph - N/A   Clear
6:55 PM 52.2 °F - 44.6 °F 75% 30.14 in 10.0 mi South 3.5 mph - N/A   Clear
7:15 PM 51.8 °F - 44.8 °F 77% 30.14 in 10.0 mi Calm Calm - N/A   Clear
7:35 PM 50.5 °F - 44.6 °F 80% 30.14 in 10.0 mi Calm Calm - N/A   Clear
7:55 PM 48.2 °F - 43.9 °F 85% 30.14 in 10.0 mi Calm Calm - N/A   Clear
8:15 PM 47.3 °F - 43.9 °F 88% 30.15 in 10.0 mi Calm Calm - N/A   Clear
8:35 PM 45.7 °F - 42.8 °F 90% 30.15 in 10.0 mi Calm Calm - N/A   Clear
8:55 PM 43.9 °F - 41.9 °F 93% 30.16 in 10.0 mi Calm Calm - N/A   Clear
9:15 PM 43.5 °F 41.9 °F 42.1 °F 95% 30.15 in 10.0 mi South 3.5 mph - N/A   Clear
9:35 PM 43.9 °F 42.3 °F 41.7 °F 92% 30.15 in 10.0 mi South 3.5 mph - N/A   Clear
9:55 PM 46.6 °F - 43.9 °F 90% 30.15 in 10.0 mi South 3.5 mph - N/A   Clear
10:15 PM 46.6 °F - 44.1 °F 91% 30.15 in 10.0 mi South 3.5 mph - N/A   Clear
10:35 PM 46.8 °F - 44.6 °F 92% 30.14 in 10.0 mi South 3.5 mph - N/A   Clear
10:55 PM 47.1 °F - 45.1 °F 93% 30.14 in 10.0 mi Calm Calm - N/A   Clear
11:15 PM 48.2 °F - 46.2 °F 93% 30.14 in 10.0 mi Calm Calm - N/A   Clear
11:35 PM 46.8 °F - 45.5 °F 95% 30.12 in 10.0 mi South 3.5 mph - N/A   Clear
11:55 PM 47.7 °F - 46.6 °F 96% 30.14 in 10.0 mi Calm Calm - N/A   Clear